Weather History for Istanbul, Turkey

Change the Weather History Date:

Friday, November 30, 2012

  Actual Average Record
Temperature  
Mean Temperature 62 °F -  
Max Temperature 65 °F 49 °F 68 °F (2010)
Min Temperature 59 °F 41 °F 33 °F (2013)
Degree Days  
Heating Degree Days 3    
Growing Degree Days 12 (Base 50)    
Moisture  
Dew Point 54 °F    
Average Humidity 73    
Maximum Humidity 100    
Minimum Humidity 47    
Precipitation  
Precipitation 0.16 in - - ()
Sea Level Pressure  
Sea Level Pressure 29.85 in    
Wind  
Wind Speed 10 mph ()    
Max Wind Speed 17 mph    
Max Gust Speed 23 mph    
Visibility 5.9 miles    
Events Rain    
Averages and records for this station are not official NWS values.
T = Trace of Precipitation, MM = Missing Value Source: Averaged Metar Reports

Daily Weather History Graph

Daily Weather History Graph

Search for Another Location

Airport:

Trip Planner

Search our weather history database for the weather conditions in past years. The results will help you decide how hot, cold, wet, or windy it might be!

Date:

Astronomy

Nov. 30, 2012 Rise Set
Actual Time 7:09 AM EET 4:37 PM EET
Civil Twilight 6:38 AM EET 5:07 PM EET
Nautical Twilight 6:04 AM EET 5:42 PM EET
Astronomical Twilight 5:31 AM EET 6:15 PM EET
Moon 6:14 PM EET (11/30) 8:26 AM EET (11/30)
Length of Visible Light 10h 29m
Length of Day
9h 28m
Full, 97% of the Moon is Illuminated
Nov 30
Full
Dec 6
Last Quarter
Dec 13
New
Dec 20
First Quarter
Dec 28
Full

Hourly Weather History & Observations

Time (EET) Temp. Dew Point Humidity Pressure Visibility Wind Dir Wind Speed Gust Speed Precip Events Conditions
12:20 AM 64.4 °F 50.0 °F 59% 29.80 in 6.2 mi South 15.0 mph - N/A   Mostly Cloudy
12:50 AM 62.6 °F 50.0 °F 63% 29.80 in 6.2 mi South 11.5 mph - N/A   Mostly Cloudy
1:20 AM 62.6 °F 48.2 °F 59% 29.77 in 6.2 mi South 13.8 mph - N/A   Mostly Cloudy
1:50 AM 62.6 °F 50.0 °F 63% 29.77 in 6.2 mi South 10.4 mph 23.0 mph N/A   Mostly Cloudy
2:00 AM 63 °F 49 °F 49% 29.79 in 6 mi South 10.4 mph - -   Partly Cloudy
2:20 AM 62.6 °F 50.0 °F 63% 29.77 in 6.2 mi South 13.8 mph - N/A   Mostly Cloudy
2:50 AM 62.6 °F 50.0 °F 63% 29.80 in 6.2 mi South 6.9 mph - N/A   Mostly Cloudy
3:20 AM 62.6 °F 50.0 °F 63% 29.80 in 6.2 mi SSW 9.2 mph - N/A   Mostly Cloudy
3:50 AM 62.6 °F 50.0 °F 63% 29.80 in 6.2 mi SSW 11.5 mph - N/A   Mostly Cloudy
4:20 AM 62.6 °F 50.0 °F 63% 29.80 in 6.2 mi SW 9.2 mph - N/A   Mostly Cloudy
4:50 AM 60.8 °F 51.8 °F 72% 29.77 in 6.2 mi SSW 8.1 mph - N/A   Mostly Cloudy
5:20 AM 62.6 °F 50.0 °F 63% 29.80 in 6.2 mi SSW 9.2 mph - N/A   Mostly Cloudy
5:50 AM 62.6 °F 51.8 °F 68% 29.80 in 6.2 mi Variable 2.3 mph - N/A   Mostly Cloudy
6:20 AM 60.8 °F 51.8 °F 72% 29.80 in 6.2 mi Variable 2.3 mph - N/A   Mostly Cloudy
6:50 AM 62.6 °F 50.0 °F 63% 29.80 in 6.2 mi South 12.7 mph - N/A   Mostly Cloudy
7:20 AM 64.4 °F 50.0 °F 59% 29.83 in 6.2 mi South 16.1 mph - N/A   Mostly Cloudy
7:50 AM 64.4 °F 50.0 °F 59% 29.83 in 6.2 mi South 11.5 mph - N/A   Mostly Cloudy
8:00 AM 65 °F 50 °F 47% 29.83 in 6 mi South 11.5 mph - -   Partly Cloudy
8:20 AM 64.4 °F 50.0 °F 59% 29.83 in 6.2 mi SW 9.2 mph - N/A   Mostly Cloudy
8:50 AM 64.4 °F 51.8 °F 64% 29.83 in 6.2 mi WSW 8.1 mph - N/A   Mostly Cloudy
9:20 AM 64.4 °F 51.8 °F 64% 29.83 in 6.2 mi SW 8.1 mph - N/A   Mostly Cloudy
9:50 AM 64.4 °F 51.8 °F 64% 29.86 in 6.2 mi SSW 17.3 mph - N/A   Mostly Cloudy
10:20 AM 64.4 °F 51.8 °F 64% 29.86 in 6.2 mi SSW 12.7 mph - N/A   Mostly Cloudy
10:50 AM 66.2 °F 51.8 °F 60% 29.86 in 6.2 mi SSW 11.5 mph - N/A   Mostly Cloudy
11:20 AM 66.2 °F 50.0 °F 56% 29.86 in 6.2 mi SSW 15.0 mph - N/A   Mostly Cloudy
11:50 AM 64.4 °F 51.8 °F 64% 29.86 in 6.2 mi SSW 10.4 mph - N/A   Mostly Cloudy
12:20 PM 64.4 °F 53.6 °F 68% 29.86 in 4.3 mi SW 11.5 mph - N/A Rain Light Rain Showers
12:50 PM 62.6 °F 53.6 °F 72% 29.86 in 6.2 mi SSW 9.2 mph - N/A Rain Light Rain Showers
1:20 PM 62.6 °F 53.6 °F 72% 29.86 in 6.2 mi SSW 10.4 mph - N/A   Mostly Cloudy
1:50 PM 62.6 °F 53.6 °F 72% 29.86 in 6.2 mi SSW 13.8 mph - N/A Rain Light Rain Showers
2:00 PM 63 °F 53 °F 61% 29.86 in 6 mi SSW 13.8 mph - - Rain Light Rain Showers
2:20 PM 64.4 °F 53.6 °F 68% 29.86 in 6.2 mi SSW 11.5 mph 23.0 mph N/A   Mostly Cloudy
2:50 PM 62.6 °F 53.6 °F 72% 29.86 in 6.2 mi South 11.5 mph - N/A   Mostly Cloudy
3:20 PM 62.6 °F 55.4 °F 77% 29.86 in 4.3 mi SSW 10.4 mph - N/A Rain Light Rain Showers
3:50 PM 60.8 °F 57.2 °F 88% 29.89 in 6.2 mi SSW 9.2 mph - N/A   Mostly Cloudy
4:20 PM 60.8 °F 55.4 °F 82% 29.89 in 6.2 mi SSW 9.2 mph - N/A   Mostly Cloudy
4:50 PM 60.8 °F 57.2 °F 88% 29.89 in 6.2 mi WSW 3.5 mph - N/A   Mostly Cloudy
5:20 PM 60.8 °F 55.4 °F 82% 29.89 in 5.0 mi WSW 9.2 mph - N/A Rain Light Rain Showers
5:50 PM 62.6 °F 55.4 °F 77% 29.92 in 5.0 mi SW 13.8 mph - N/A Rain Light Rain Showers
6:20 PM 60.8 °F 57.2 °F 88% 29.92 in 5.0 mi SW 13.8 mph - N/A Rain Light Rain Showers
6:50 PM 60.8 °F 59.0 °F 94% 29.92 in 6.2 mi WSW 6.9 mph - N/A Rain Light Rain Showers
7:20 PM 60.8 °F 59.0 °F 94% 29.92 in 4.3 mi West 6.9 mph - N/A Rain Light Rain Showers
7:50 PM 60.8 °F 59.0 °F 94% 29.92 in 4.3 mi WNW 6.9 mph - N/A Rain Light Rain Showers
8:00 PM 61 °F 59 °F 90% 29.92 in 4 mi WNW 6.9 mph - - Rain Light Rain Showers
8:20 PM 60.8 °F 59.0 °F 94% 29.89 in 5.0 mi WNW 5.8 mph - N/A Rain Light Rain Showers
8:50 PM 62.6 °F 57.2 °F 82% 29.89 in 6.2 mi West 3.5 mph - N/A   Mostly Cloudy
9:20 PM 60.8 °F 59.0 °F 94% 29.89 in 6.2 mi SSE 9.2 mph - N/A   Mostly Cloudy
9:50 PM 62.6 °F 59.0 °F 88% 29.89 in 6.2 mi ESE 6.9 mph - N/A   Mostly Cloudy
10:20 PM 62.6 °F 59.0 °F 88% 29.89 in 6.2 mi SE 6.9 mph 18.4 mph N/A   Mostly Cloudy
10:50 PM 59.0 °F 57.2 °F 94% 29.89 in 6.2 mi ESE 4.6 mph - N/A   Mostly Cloudy
11:20 PM 59.0 °F 59.0 °F 100% 29.92 in 6.2 mi Variable 1.2 mph - N/A   Mostly Cloudy
11:50 PM 60.8 °F 59.0 °F 94% 29.89 in 6.2 mi Variable 2.3 mph - N/A   Mostly Cloudy